Location: Roland
(31.1349°N, 85.4372°W)
Time: 22:50:51
(UTC+00:00)

Tiros 1 - Pass Details

Date: 25 April 2021
Orbit: 630 x 664 km, 48.4° (Epoch: 06 May)

Event Time Altitude Azimuth Distance (km) Brightness Sun altitude
Rises 20:11:37 0° 302° (WNW) 2,913 10.9 50.9°
Reaches altitude 10° 20:14:03 10° 294° (WNW) 2,002 10.3 50.4°
Maximum altitude 20:18:17 37° 227° (SW) 978 9.7 49.6°
Drops below altitude 10° 20:22:31 10° 160° (SSE) 1,998 9.8 48.7°
Sets 20:24:58 0° 152° (SSE) 2,906 10.4 48.2°
